Location: Lane
(33.5226°N, 79.8788°W)
Time: 00:48:38
(UTC+00:00)

Vanguard 1 Rocket - Pass Details

Date: 06 October 2022
Orbit: 650 x 4225 km, 34.3° (Epoch: 05 December)

Event Time Altitude Azimuth Distance (km) Brightness Sun altitude
Rises 04:07:40 0° 280° (W) 7,101 12.2 -58.3°
Reaches altitude 10° 04:13:13 10° 281° (W) 5,523 11.5 -58.9°
Enters shadow 04:18:54 25° 280° (W) 3,792 10.5 -59.4°
